EA7RX-13 Weather Reports


time (UTC)temp
F
wind
direction
speed
knots
gust
knots
rain 1hr
in
rain 24hr
in
rain mn
in
humidity
%
barometer
mb
20260503072349 67 0.0 0.0 0.00 0.00 0.00 10 1013.9
20260503071349 65 0.0 0.0 0.00 0.00 0.00 10 1014.0
20260503070349 65 0.0 0.0 0.00 0.00 0.00 10 1013.9
20260503054349 63 0.0 0.0 0.00 0.00 0.00 10 1014.0
20260503053349 63 0.0 0.0 0.00 0.00 0.00 10 1013.9
20260503052349 64 0.0 0.0 0.00 0.00 0.00 10 1013.9
20260503051349 64 0.0 0.0 0.00 0.00 0.00 10 1013.7
20260503050349 64 0.0 0.0 0.00 0.00 0.00 10 1013.5
20260503045349 64 0.0 0.0 0.00 0.00 0.00 10 1013.7
20260503044349 64 0.0 0.0 0.00 0.00 0.00 10 1013.7
20260503043349 64 0.0 0.0 0.00 0.00 0.00 10 1013.8
20260503042349 65 0.0 0.0 0.00 0.00 0.00 10 1013.7
20260503041349 64 0.0 0.0 0.00 0.00 0.00 10 1014.0
20260503040349 64 0.0 0.0 0.00 0.00 0.00 10 1013.9
20260503035349 64 0.0 0.0 0.00 0.00 0.00 10 1013.7
20260503034349 64 0.0 0.0 0.00 0.00 0.00 10 1014.0
20260503033349 64 0.0 0.0 0.00 0.00 0.00 10 1014.2
20260503032349 65 0.0 0.0 0.00 0.00 0.00 10 1014.1
20260503031349 65 0.0 0.0 0.00 0.00 0.00 10 1014.0
20260503030349 65 0.0 0.0 0.00 0.00 0.00 10 1014.2
20260503025349 65 0.0 0.0 0.00 0.00 0.00 10 1014.1
20260503024349 65 0.0 0.0 0.00 0.00 0.00 10 1014.1
20260503023349 65 0.0 0.0 0.00 0.00 0.00 10 1014.0
20260503022349 66 0.0 0.0 0.00 0.00 0.00 10 1013.9
20260503021349 65 0.0 0.0 0.00 0.00 0.00 10 1013.8
20260503020349 66 0.0 0.0 0.00 0.00 0.00 10 1013.9
20260503015349 66 0.0 0.0 0.00 0.00 0.00 10 1013.9
20260503014349 66 0.0 0.0 0.00 0.00 0.00 10 1013.9
20260503013349 66 0.0 0.0 0.00 0.00 0.00 10 1013.9
20260503012349 67 0.0 0.0 0.00 0.00 0.00 10 1013.9
20260503011349 67 0.0 0.0 0.00 0.00 0.00 10 1013.8
20260503010349 67 0.0 0.0 0.00 0.00 0.00 10 1013.7
20260503005349 67 0.0 0.0 0.00 0.00 0.00 10 1013.9
20260503004349 68 0.0 0.0 0.00 0.00 0.00 10 1013.9
20260503003349 67 0.0 0.0 0.00 0.00 0.00 10 1014.0
20260503002349 68 0.0 0.0 0.00 0.00 0.00 10 1014.0
20260503001349 68 0.0 0.0 0.00 0.00 0.00 10 1014.1
20260503000349 69 0.0 0.0 0.00 0.00 0.00 10 1014.1
20260502235349 69 0.0 0.0 0.00 0.00 0.00 10 1014.3
20260502234349 69 0.0 0.0 0.00 0.00 0.00 10 1014.4
20260502233349 69 0.0 0.0 0.00 0.00 0.00 10 1014.3
20260502232349 69 0.0 0.0 0.00 0.00 0.00 10 1014.3
20260502231349 69 0.0 0.0 0.00 0.00 0.00 10 1014.3
20260502230349 69 0.0 0.0 0.00 0.00 0.00 10 1014.4
20260502225349 70 0.0 0.0 0.00 0.00 0.00 10 1014.3
20260502224349 70 0.0 0.0 0.00 0.00 0.00 10 1014.2
20260502223349 70 0.0 0.0 0.00 0.00 0.00 10 1014.2
20260502222349 70 0.0 0.0 0.00 0.00 0.00 10 1014.1
20260502221349 70 0.0 0.0 0.00 0.00 0.00 10 1014.1
20260502220349 70 0.0 0.0 0.00 0.00 0.00 10 1014.4
20260502215349 70 0.0 0.0 0.00 0.00 0.00 10 1014.4
20260502214349 70 0.0 0.0 0.00 0.00 0.00 10 1014.4
20260502213349 70 0.0 0.0 0.00 0.00 0.00 10 1014.4
20260502212349 70 0.0 0.0 0.00 0.00 0.00 10 1014.4
20260502211349 70 0.0 0.0 0.00 0.00 0.00 10 1014.3
20260502210349 70 0.0 0.0 0.00 0.00 0.00 10 1014.1
20260502205349 71 0.0 0.0 0.00 0.00 0.00 10 1014.2
20260502204349 70 0.0 0.0 0.00 0.00 0.00 10 1013.9
20260502203349 71 0.0 0.0 0.00 0.00 0.00 10 1013.9
20260502202349 71 0.0 0.0 0.00 0.00 0.00 10 1013.8
20260502201349 71 0.0 0.0 0.00 0.00 0.00 10 1013.9
20260502200349 71 0.0 0.0 0.00 0.00 0.00 99 1013.7
20260502195349 71 0.0 0.0 0.00 0.00 0.00 10 1013.7
20260502194349 71 0.0 0.0 0.00 0.00 0.00 95 1013.6
20260502193349 72 0.0 0.0 0.00 0.00 0.00 10 1013.4
20260502192349 72 0.0 0.0 0.00 0.00 0.00 97 1013.4
20260502191349 72 0.0 0.0 0.00 0.00 0.00 94 1013.2
20260502190349 73 0.0 0.0 0.00 0.00 0.00 90 1013.0
20260502185349 73 0.0 0.0 0.00 0.00 0.00 87 1013.1
20260502184349 73 0.0 0.0 0.00 0.00 0.00 84 1013.0
20260502183349 73 0.0 0.0 0.00 0.00 0.00 81 1013.0
20260502182349 74 0.0 0.0 0.00 0.00 0.00 84 1012.9
20260502181349 74 0.0 0.0 0.00 0.00 0.00 86 1012.9
20260502180349 74 0.0 0.0 0.00 0.00 0.00 94 1012.8
20260502170349 79 0.0 0.0 0.00 0.00 0.00 66 1012.4
20260502163349 77 0.0 0.0 0.00 0.00 0.00 97 1012.8
20260502162349 78 0.0 0.0 0.00 0.00 0.00 74 1012.7
20260502161349 78 0.0 0.0 0.00 0.00 0.00 77 1012.8
20260502160349 78 0.0 0.0 0.00 0.00 0.00 61 1012.9
20260502151349 79 0.0 0.0 0.00 0.00 0.00 64 1013.2
20260502150349 79 0.0 0.0 0.00 0.00 0.00 66 1013.4
20260502130349 80 0.0 0.0 0.00 0.00 0.00 61 1014.9
20260502123349 79 0.0 0.0 0.00 0.00 0.00 62 1015.1
20260502122349 79 0.0 0.0 0.00 0.00 0.00 64 1015.3
20260502121349 82 0.0 0.0 0.00 0.00 0.00 62 1015.1
20260502120349 78 0.0 0.0 0.00 0.00 0.00 63 1015.8
20260502115349 79 0.0 0.0 0.00 0.00 0.00 58 1015.5
20260502114349 79 0.0 0.0 0.00 0.00 0.00 61 1015.6
20260502113349 80 0.0 0.0 0.00 0.00 0.00 58 1015.9
20260502112349 80 0.0 0.0 0.00 0.00 0.00 61 1015.8
20260502111349 79 0.0 0.0 0.00 0.00 0.00 64 1016.0
20260502110349 80 0.0 0.0 0.00 0.00 0.00 60 1016.0
20260502105349 77 0.0 0.0 0.00 0.00 0.00 64 1016.2
20260502104348 78 0.0 0.0 0.00 0.00 0.00 62 1016.3
20260502103349 75 0.0 0.0 0.00 0.00 0.00 71 1016.5
20260502102348 74 0.0 0.0 0.00 0.00 0.00 69 1016.6
20260502101348 76 0.0 0.0 0.00 0.00 0.00 71 1016.5
20260502100349 75 0.0 0.0 0.00 0.00 0.00 74 1016.7
20260502091348 73 0.0 0.0 0.00 0.00 0.00 87 1016.9
20260502090348 74 0.0 0.0 0.00 0.00 0.00 86 1016.8